Simultaneous Nadir Overpasses (SNOs) Predictions

Prediction of SNOs between GOES-15 and NOAA-20 Satellite Orbit:

Table of predicted SNOs for the next 14.0 days since TLE Epoch: 11/18/2023
Index Date Time (GOES-15) GOES-15 Lat,Lon NOAA-20 Lat,Lon Distance(km) Time Diff (sec)
1 11/19/2023 09:33:49 -0.05, 61.66 -0.92, 57.65 456.64 80
2 11/20/2023 09:17:44 -0.06, 61.63 0.06, 62.18 63.11 80
3 11/22/2023 21:18:09 0.05, 61.52 0.08, 61.43 10.28 80
4 11/25/2023 09:21:23 -0.04, 61.50 -0.21, 60.65 96.93 80
5 11/26/2023 09:05:18 -0.05, 61.47 0.78, 65.18 422.55 80
6 11/27/2023 21:27:08 0.03, 61.39 0.35, 59.89 170.04 80
7 11/28/2023 21:05:43 0.05, 61.37 -0.65, 64.43 348.31 80
8 11/30/2023 09:27:41 -0.02, 61.40 -0.52, 59.12 259.64 80
9 12/01/2023 09:11:36 -0.03, 61.37 0.48, 63.65 259.27 80
